EW7448 Weather Reports


Display with metric or nautical units.
time (UTC)temp
F
wind
direction
speed
MPH
gust
MPH
rain 1hr
in
rain 24hr
in
rain mn
in
humidity
%
barometer
mb
20260502230050 80 248 0.0 2.0 0.00 0.00 0.00 70 1008.9
20260502224556 80 293 0.0 4.0 0.00 0.00 0.00 70 1008.7
20260502223049 80 311 1.0 6.0 0.00 0.00 0.00 69 1008.4
20260502221553 82 6 3.0 9.0 0.00 0.00 0.00 72 1008.4
20260502220050 85 337 3.0 8.0 0.00 0.00 0.00 70 1008.1
20260502214549 85 293 0.0 6.0 0.00 0.00 0.00 69 1008.0
20260502213046 86 297 2.0 7.0 0.00 0.00 0.00 68 1008.1
20260502211545 87 300 1.0 6.0 0.00 0.00 0.00 67 1008.0
20260502210044 88 303 1.0 4.0 0.00 0.00 0.00 65 1007.8
20260502204546 89 305 1.0 6.0 0.00 0.00 0.00 63 1007.6
20260502203046 89 295 0.0 5.0 0.00 0.00 0.00 64 1007.6
20260502201542 89 293 1.0 6.0 0.00 0.00 0.00 61 1007.7
20260502200042 90 300 0.0 7.0 0.00 0.00 0.00 60 1007.6
20260502194541 91 311 3.0 9.0 0.00 0.00 0.00 56 1007.8
20260502193052 91 286 2.0 11.0 0.00 0.00 0.00 59 1007.9
20260502191543 90 252 2.0 11.0 0.00 0.00 0.00 60 1008.0
20260502190038 91 212 3.0 11.0 0.00 0.00 0.00 60 1008.2
20260502184536 90 219 3.0 12.0 0.00 0.00 0.00 61 1008.0
20260502183035 91 260 3.0 11.0 0.00 0.00 0.00 63 1008.0
20260502181533 90 283 2.0 11.0 0.00 0.00 0.00 63 1008.0
20260502163034 90 211 2.0 10.0 0.00 0.00 0.00 68 1008.9
20260502161521 89 236 3.0 10.0 0.00 0.00 0.00 69 1009.1
20260502151515 87 182 3.0 12.0 0.00 0.00 0.00 76 1009.3
20260502130106 77 191 1.0 4.0 0.00 0.00 0.00 87 1009.1
20260502123112 73 219 0.0 3.0 0.00 0.00 0.00 93 1009.2
20260502121545 71 271 0.0 2.0 0.00 0.00 0.00 95 1009.2
20260502114548 69 208 0.0 1.0 0.00 0.00 0.00 96 1009.0
20260502113044 69 206 0.0 3.0 0.00 0.00 0.00 96 1009.0
20260502111541 68 147 0.0 3.0 0.00 0.00 0.00 96 1009.0
20260502110047 68 216 0.0 2.0 0.00 0.00 0.00 96 1009.1
20260502104540 68 182 0.0 3.0 0.00 0.00 0.00 96 1009.0
20260502103040 68 192 0.0 2.0 0.00 0.00 0.00 96 1008.8
20260502101546 68 202 0.0 0.0 0.00 0.00 0.00 95 1008.8
20260502071519 72 150 0.0 2.0 0.00 0.00 0.00 90 1008.8
20260502070022 72 206 0.0 2.0 0.00 0.00 0.00 90 1008.7
20260502064518 72 200 0.0 2.0 0.00 0.00 0.00 90 1008.8
20260502063016 73 228 0.0 1.0 0.00 0.00 0.00 90 1008.8
20260502061514 73 151 0.0 3.0 0.00 0.00 0.00 90 1008.9
20260502060011 73 148 0.0 3.0 0.00 0.00 0.00 90 1009.1
20260502054520 73 155 0.0 2.0 0.00 0.00 0.00 90 1009.1
20260502053006 74 203 0.0 2.0 0.00 0.00 0.00 89 1009.3
20260502051504 75 157 0.0 2.0 0.00 0.00 0.00 86 1009.4
20260502050011 75 236 0.0 3.0 0.00 0.00 0.00 86 1009.4
20260502044501 76 225 0.0 3.0 0.00 0.00 0.00 88 1009.6
20260502043119 76 216 1.0 5.0 0.00 0.00 0.00 88 1009.7
20260502041559 76 165 1.0 7.0 0.00 0.00 0.00 88 1009.5
20260502040106 76 188 1.0 7.0 0.00 0.00 0.00 88 1009.6
20260502034603 76 244 1.0 6.0 0.00 0.00 0.00 87 1009.7
20260502033105 76 222 3.0 8.0 0.00 0.00 0.00 87 1009.6
20260502031554 77 219 2.0 7.0 0.00 0.00 0.00 87 1009.6
20260502030054 77 211 0.0 5.0 0.00 0.00 0.00 87 1009.6
20260502024609 77 172 1.0 3.0 0.00 0.00 0.00 87 1009.7
20260502023053 76 200 0.0 3.0 0.00 0.00 0.00 89 1009.6
20260502021555 76 224 0.0 1.0 0.00 0.00 0.00 90 1009.3
20260502020054 76 148 0.0 0.0 0.00 0.00 0.00 90 1009.0
20260502014550 76 149 0.0 1.0 0.00 0.00 0.00 90 1009.0
20260502013051 76 150 0.0 0.0 0.00 0.00 0.00 89 1008.8
20260502011549 77 150 0.0 2.0 0.00 0.00 0.00 88 1008.7
20260502010053 77 134 0.0 1.0 0.00 0.00 0.00 87 1008.5
20260502004600 78 145 0.0 1.0 0.00 0.00 0.00 86 1008.3
20260502003048 79 145 0.0 2.0 0.00 0.00 0.00 84 1008.0
20260502001547 80 188 0.0 1.0 0.00 0.00 0.00 84 1007.8
20260502000047 80 136 0.0 1.0 0.00 0.00 0.00 83 1007.6
20260501234547 81 142 0.0 2.0 0.00 0.00 0.00 82 1007.5
20260501233049 82 155 0.0 2.0 0.00 0.00 0.00 81 1007.3
20260501231545 83 217 0.0 2.0 0.00 0.00 0.00 80 1007.2